{"data":{"norad_id":81893,"intl_designator":"","name":"UNKNOWN","alt_names":[],"object_type":"UNKNOWN","status":"UNKNOWN","operator":null,"country":null,"launch_date":null,"launch_site_code":null,"launch_vehicle":null,"mission":null,"orbit_class":"UNKNOWN","rcs_meters":null,"size_class":null,"mass_kg":null,"dimensions":null,"purposes":[],"wikipedia_slug":null,"has_3d_model":false,"image_url":null,"decayed_at":null,"tle_current":{"epoch":"2026-05-20T06:38:03.982272Z","epoch_age_seconds":477089,"freshness":"STALE","line1":"1 81893U          26140.27643498  .00000654  00000+0  71142-3 0  9997","line2":"2 81893 100.0581 137.4963 0019151 217.8604 142.1198 13.77052099625893","mean_motion":13.77052099,"eccentricity":0.0019151,"inclination_deg":100.0581,"raan_deg":137.4963,"arg_perigee_deg":217.8604,"mean_anomaly_deg":142.1198,"bstar":0.00071142,"rev_number":62589,"period_min":104.57120693151,"perigee_km":960.28043245214,"apogee_km":988.44197106451,"semimajor_km":7352.4982017583,"source":"CELESTRAK","updated_at":"2026-05-25T13:38:11.087576Z"}}}